FW8022 Weather Reports


Display with metric or nautical units.
time (UTC)temp
F
wind
direction
speed
MPH
gust
MPH
rain 1hr
in
rain 24hr
in
rain mn
in
humidity
%
barometer
mb
20260509053055 53 242 2.0 5.0 0.00 0.00 0.00 90 1016.1
20260509052537 53 234 2.0 5.0 0.00 0.00 0.00 90 1016.0
20260509052036 53 225 3.0 5.0 0.00 0.00 0.00 90 1016.0
20260509051550 53 234 2.0 5.0 0.00 0.00 0.00 90 1016.0
20260509051040 53 231 2.0 5.0 0.00 0.00 0.00 90 1016.0
20260509050537 53 240 3.0 5.0 0.00 0.00 0.00 90 1016.0
20260509050044 53 245 2.0 5.0 0.00 0.00 0.00 90 1016.1
20260509045537 53 238 2.0 5.0 0.00 0.00 0.00 90 1016.0
20260509045037 53 242 2.0 5.0 0.00 0.00 0.00 90 1016.0
20260509044549 53 232 2.0 5.0 0.00 0.00 0.00 90 1015.9
20260509044037 53 236 2.0 5.0 0.00 0.00 0.00 90 1015.9
20260509043536 53 239 3.0 5.0 0.00 0.00 0.00 90 1016.0
20260509043047 53 214 2.0 5.0 0.00 0.00 0.00 90 1016.0
20260509042536 53 238 2.0 5.0 0.00 0.00 0.00 90 1016.0
20260509042039 53 228 3.0 5.0 0.00 0.00 0.00 90 1016.0
20260509041546 53 232 2.0 5.0 0.00 0.00 0.00 90 1016.0
20260509041037 53 252 3.0 5.0 0.00 0.00 0.00 90 1015.9
20260509040536 53 240 3.0 5.0 0.00 0.00 0.00 90 1015.8
20260509040044 53 239 2.0 5.0 0.00 0.00 0.00 90 1015.9
20260509035537 53 215 2.0 5.0 0.00 0.00 0.00 90 1015.8
20260509035037 53 221 3.0 5.0 0.00 0.00 0.00 90 1015.8
20260509034547 53 230 3.0 5.0 0.00 0.00 0.00 90 1015.8
20260509034036 53 244 2.0 5.0 0.00 0.00 0.00 90 1015.7
20260509033536 53 242 3.0 7.0 0.00 0.00 0.00 90 1015.8
20260509033043 53 235 2.0 7.0 0.00 0.00 0.00 90 1015.8
20260509032537 53 233 3.0 6.0 0.00 0.00 0.00 90 1015.7
20260509032036 53 257 3.0 8.0 0.00 0.00 0.00 89 1015.7
20260509031543 53 265 3.0 8.0 0.00 0.00 0.00 89 1015.8
20260509031036 53 265 3.0 6.0 0.00 0.00 0.00 89 1015.8
20260509030537 53 243 3.0 8.0 0.00 0.00 0.00 89 1015.7
20260509030048 53 221 3.0 8.0 0.00 0.00 0.00 89 1015.8
20260509025536 53 243 3.0 7.0 0.00 0.00 0.00 89 1015.7
20260509025037 53 229 3.0 7.0 0.00 0.00 0.00 89 1015.7
20260509024545 53 248 3.0 7.0 0.00 0.00 0.00 89 1015.7
20260509024037 53 271 3.0 7.0 0.00 0.00 0.00 89 1015.8
20260509023537 53 254 3.0 7.0 0.00 0.00 0.00 88 1015.8
20260509023048 53 263 2.0 7.0 0.00 0.00 0.00 88 1015.7
20260509022536 53 249 3.0 7.0 0.00 0.00 0.00 88 1015.7
20260509022037 53 227 3.0 7.0 0.00 0.00 0.00 88 1015.7
20260509021551 53 236 3.0 7.0 0.00 0.00 0.00 88 1015.7
20260509021034 53 261 3.0 7.0 0.00 0.00 0.00 88 1015.7
20260509020534 54 242 3.0 8.0 0.00 0.00 0.00 88 1015.6
20260509020053 54 245 4.0 8.0 0.00 0.00 0.00 88 1015.7
20260509015535 54 244 2.0 6.0 0.00 0.00 0.00 88 1015.7
20260509015037 54 234 2.0 7.0 0.00 0.00 0.00 88 1015.7
20260509014549 54 267 3.0 7.0 0.00 0.00 0.00 87 1015.7
20260509014036 54 271 3.0 6.0 0.00 0.00 0.00 88 1015.8
20260509013534 54 277 2.0 6.0 0.00 0.00 0.00 88 1015.9
20260509013051 54 247 3.0 9.0 0.00 0.00 0.00 87 1015.9
20260509012535 54 278 3.0 9.0 0.00 0.00 0.00 87 1015.9
20260509012035 54 271 3.0 9.0 0.00 0.00 0.00 87 1015.9
20260509011555 54 199 3.0 8.0 0.00 0.00 0.00 87 1015.9
20260509011034 54 261 3.0 8.0 0.00 0.00 0.00 87 1016.0
20260509010533 54 246 3.0 9.0 0.00 0.00 0.00 87 1016.0
20260509010052 54 259 3.0 9.0 0.00 0.00 0.00 87 1016.0
20260509005537 54 256 3.0 8.0 0.00 0.00 0.00 87 1016.0
20260509005033 54 272 3.0 9.0 0.00 0.00 0.00 87 1016.1
20260509004550 54 259 4.0 9.0 0.00 0.00 0.00 87 1016.1
20260509004036 54 285 3.0 9.0 0.00 0.00 0.00 87 1016.2
20260509003537 54 284 3.0 9.0 0.00 0.00 0.00 87 1016.3
20260509003043 54 250 3.0 9.0 0.00 0.00 0.00 87 1016.4
20260509002537 54 248 3.0 9.0 0.00 0.00 0.00 87 1016.3
20260509002033 54 254 3.0 9.0 0.00 0.00 0.00 87 1016.4
20260509001551 54 241 2.0 8.0 0.00 0.00 0.00 88 1016.4
20260509001038 54 246 2.0 9.0 0.00 0.00 0.00 87 1016.5
20260509000537 54 271 3.0 9.0 0.00 0.00 0.00 87 1016.5
20260509000049 54 256 3.0 8.0 0.00 0.00 0.00 87 1016.5
20260508235534 54 262 3.0 8.0 0.00 0.00 0.00 87 1016.5
20260508235037 54 292 4.0 8.0 0.00 0.00 0.00 87 1016.5
20260508234547 54 211 3.0 8.0 0.00 0.00 0.00 87 1016.5
20260508234033 54 272 3.0 9.0 0.00 0.00 0.00 87 1016.6
20260508233538 54 288 3.0 9.0 0.00 0.00 0.00 87 1016.7
20260508233042 54 296 3.0 9.0 0.00 0.00 0.00 87 1016.7
20260508232533 54 264 3.0 10.0 0.00 0.00 0.00 87 1016.7
20260508232034 54 271 3.0 10.0 0.00 0.00 0.00 86 1016.8
20260508231611 55 284 3.0 9.0 0.00 0.00 0.00 87 1016.9
20260508231033 55 257 3.0 9.0 0.00 0.00 0.00 87 1017.0
20260508230537 55 261 4.0 9.0 0.00 0.00 0.00 86 1017.0
20260508230055 55 263 3.0 9.0 0.00 0.00 0.00 86 1017.1
20260508225536 54 271 4.0 10.0 0.00 0.00 0.00 86 1017.2
20260508225037 55 246 3.0 10.0 0.00 0.00 0.00 86 1017.2
20260508224541 54 277 3.0 10.0 0.00 0.00 0.00 87 1017.3
20260508224037 55 320 3.0 10.0 0.00 0.00 0.00 87 1017.3
20260508223537 54 263 4.0 10.0 0.00 0.00 0.00 87 1017.4
20260508223048 55 277 4.0 9.0 0.00 0.00 0.00 87 1017.5
20260508222537 54 283 4.0 9.0 0.00 0.00 0.00 87 1017.5
20260508222034 54 249 3.0 9.0 0.00 0.00 0.00 86 1017.6
20260508221544 54 231 3.0 8.0 0.00 0.00 0.00 86 1017.5
20260508221037 54 269 3.0 7.0 0.00 0.00 0.00 86 1017.6
20260508220536 55 236 3.0 10.0 0.00 0.00 0.00 86 1017.6
20260508220045 54 257 3.0 10.0 0.00 0.00 0.00 86 1017.7
20260508215536 54 265 3.0 8.0 0.00 0.00 0.00 86 1017.8
20260508215036 55 248 4.0 9.0 0.00 0.00 0.00 86 1017.8
20260508214617 55 265 4.0 9.0 0.00 0.00 0.00 86 1017.8
20260508214037 55 279 3.0 8.0 0.00 0.00 0.00 86 1017.9
20260508213536 55 244 3.0 8.0 0.00 0.00 0.00 86 1018.0
20260508213047 54 248 3.0 7.0 0.00 0.00 0.00 86 1017.9
20260508212535 55 248 2.0 7.0 0.00 0.00 0.00 86 1018.0
20260508212040 55 238 3.0 9.0 0.00 0.00 0.00 86 1018.0
20260508211542 55 252 3.0 9.0 0.00 0.00 0.00 86 1018.0
20260508211036 55 268 4.0 9.0 0.00 0.00 0.00 86 1018.1
20260508210538 55 277 3.0 7.0 0.00 0.00 0.00 86 1018.1
20260508210041 54 340 3.0 7.0 0.00 0.00 0.00 86 1018.2
20260508205536 54 237 3.0 10.0 0.00 0.00 0.00 86 1018.2
20260508205037 54 255 4.0 10.0 0.00 0.00 0.00 86 1018.2
20260508204544 54 260 3.0 9.0 0.00 0.00 0.00 86 1018.2
20260508204036 54 304 3.0 9.0 0.00 0.00 0.00 86 1018.2
20260508203539 54 273 3.0 9.0 0.00 0.00 0.00 87 1018.2
20260508203042 54 253 3.0 8.0 0.00 0.00 0.00 87 1018.4
20260508202539 54 250 3.0 7.0 0.00 0.00 0.00 87 1018.4
20260508202038 54 281 4.0 8.0 0.00 0.00 0.00 87 1018.4
20260508201552 54 293 4.0 10.0 0.00 0.00 0.00 87 1018.4
20260508201038 54 263 4.0 10.0 0.00 0.00 0.00 87 1018.4
20260508200538 54 276 3.0 9.0 0.00 0.00 0.00 87 1018.3
20260508200053 54 283 3.0 9.0 0.00 0.00 0.00 87 1018.3
20260508195538 54 290 4.0 9.0 0.00 0.00 0.00 87 1018.4
20260508195039 54 301 2.0 10.0 0.00 0.00 0.00 87 1018.2
20260508194553 54 259 3.0 10.0 0.00 0.00 0.00 88 1018.3
20260508194039 54 265 4.0 10.0 0.00 0.00 0.00 88 1018.4
20260508193542 54 246 3.0 9.0 0.00 0.00 0.00 88 1018.4
20260508193123 54 201 3.0 9.0 0.00 0.00 0.00 88 1018.4
20260508192539 53 263 3.0 9.0 0.00 0.00 0.00 88 1018.4
20260508192039 54 298 3.0 8.0 0.00 0.00 0.00 89 1018.4
20260508191549 54 292 3.0 8.0 0.00 0.00 0.00 89 1018.5
20260508191037 54 249 3.0 7.0 0.00 0.00 0.00 89 1018.5
20260508190538 53 261 2.0 7.0 0.00 0.00 0.00 89 1018.6
20260508190053 53 250 2.0 7.0 0.00 0.00 0.00 89 1018.6
20260508185540 53 271 3.0 7.0 0.00 0.00 0.00 90 1018.6
20260508185039 53 262 2.0 6.0 0.00 0.00 0.00 90 1018.5
20260508184544 53 281 3.0 8.0 0.00 0.00 0.00 90 1018.5
20260508184038 53 254 2.0 8.0 0.00 0.00 0.00 91 1018.5
20260508183538 53 278 3.0 8.0 0.00 0.00 0.00 91 1018.5
20260508183043 53 265 4.0 8.0 0.00 0.00 0.00 91 1018.6
20260508182538 53 284 2.0 8.0 0.00 0.00 0.00 91 1018.6
20260508182038 53 276 2.0 10.0 0.00 0.00 0.00 91 1018.7
20260508181553 53 255 2.0 10.0 0.00 0.00 0.00 91 1018.7
20260508181038 53 274 4.0 10.0 0.00 0.00 0.00 91 1018.7
20260508180539 53 271 4.0 9.0 0.00 0.00 0.00 91 1018.6
20260508180105 53 263 3.0 8.0 0.00 0.00 0.00 91 1018.6
20260508175538 53 250 2.0 10.0 0.00 0.00 0.00 91 1018.6
20260508175039 53 279 3.0 10.0 0.00 0.00 0.00 91 1018.7
20260508174557 53 284 2.0 9.0 0.00 0.00 0.00 91 1018.7
20260508174038 53 238 3.0 9.0 0.00 0.00 0.00 91 1018.6
20260508173542 53 244 3.0 9.0 0.00 0.00 0.00 91 1018.6
20260508173050 53 284 2.0 8.0 0.00 0.00 0.00 91 1018.6
20260508172538 53 286 3.0 8.0 0.00 0.00 0.00 91 1018.6
20260508172039 53 281 2.0 7.0 0.00 0.00 0.00 91 1018.5
20260508171541 53 282 3.0 7.0 0.00 0.00 0.00 90 1018.5
20260508171040 53 262 3.0 8.0 0.00 0.00 0.00 91 1018.5
20260508170539 53 298 2.0 8.0 0.00 0.00 0.00 90 1018.5
20260508170049 53 277 3.0 8.0 0.00 0.00 0.00 90 1018.4
20260508165537 53 296 3.0 7.0 0.00 0.00 0.00 90 1018.4
20260508165038 53 255 2.0 8.0 0.00 0.00 0.00 90 1018.4
20260508164547 53 241 2.0 8.0 0.00 0.00 0.00 90 1018.4
20260508164038 53 261 2.0 6.0 0.00 0.00 0.00 90 1018.4
20260508163537 53 274 2.0 6.0 0.00 0.00 0.00 90 1018.3
20260508163045 52 341 2.0 6.0 0.00 0.00 0.00 90 1018.4
20260508162538 52 238 2.0 6.0 0.00 0.00 0.00 89 1018.3
20260508162038 52 272 2.0 6.0 0.00 0.00 0.00 90 1018.3
20260508161545 52 292 2.0 5.0 0.00 0.00 0.00 90 1018.3
20260508161040 52 288 2.0 5.0 0.00 0.00 0.00 90 1018.2
20260508160536 52 242 2.0 7.0 0.00 0.00 0.00 90 1018.2
20260508160052 52 229 3.0 10.0 0.00 0.00 0.00 90 1018.2
20260508155538 52 264 2.0 10.0 0.00 0.00 0.00 90 1018.0
20260508155038 52 250 4.0 10.0 0.00 0.00 0.00 90 1018.0
20260508154551 52 239 1.0 7.0 0.00 0.00 0.00 90 1018.0
20260508154038 52 264 3.0 7.0 0.00 0.00 0.00 90 1018.0
20260508153538 52 269 2.0 7.0 0.00 0.00 0.00 90 1018.0
20260508153047 52 280 3.0 7.0 0.00 0.00 0.00 90 1018.0
20260508152537 52 298 2.0 7.0 0.00 0.00 0.00 90 1017.9
20260508152037 52 294 3.0 7.0 0.00 0.00 0.00 90 1017.9
20260508151545 52 280 3.0 8.0 0.00 0.00 0.00 91 1017.9
20260508151038 52 261 2.0 8.0 0.00 0.00 0.00 90 1017.9
20260508150537 52 321 4.0 8.0 0.00 0.00 0.00 90 1017.9
20260508150049 52 306 2.0 6.0 0.00 0.00 0.00 91 1017.9
20260508145538 52 286 1.0 7.0 0.00 0.00 0.00 91 1017.9
20260508145036 51 274 2.0 9.0 0.00 0.00 0.00 90 1017.9
20260508144543 51 236 2.0 9.0 0.00 0.00 0.00 90 1018.0
20260508144038 51 269 3.0 8.0 0.00 0.00 0.00 90 1017.9
20260508143538 51 271 4.0 8.0 0.00 0.00 0.00 90 1017.9
20260508143055 52 306 3.0 7.0 0.00 0.00 0.00 90 1017.9
20260508142538 51 285 2.0 11.0 0.00 0.00 0.00 90 1017.9
20260508142038 51 238 2.0 11.0 0.00 0.00 0.00 90 1017.9
20260508141550 51 312 3.0 9.0 0.00 0.00 0.00 90 1017.9
20260508141037 51 278 4.0 9.0 0.00 0.00 0.00 90 1017.9
20260508140539 52 277 3.0 8.0 0.00 0.00 0.00 90 1017.9
20260508140049 51 281 3.0 8.0 0.00 0.00 0.00 90 1017.8
20260508135538 51 294 3.0 10.0 0.00 0.00 0.00 90 1017.8
20260508135038 51 280 3.0 10.0 0.00 0.00 0.00 90 1017.8
20260508134546 51 298 3.0 9.0 0.00 0.00 0.00 90 1017.8
20260508134037 51 263 4.0 9.0 0.00 0.00 0.00 90 1017.7
20260508133538 51 236 3.0 8.0 0.00 0.00 0.00 90 1017.6
20260508133050 51 284 3.0 7.0 0.00 0.00 0.00 90 1017.5
20260508132539 51 264 3.0 8.0 0.00 0.00 0.00 90 1017.5
20260508132037 51 294 3.0 8.0 0.00 0.00 0.00 90 1017.5
20260508131544 51 279 3.0 7.0 0.00 0.00 0.00 89 1017.5
20260508131038 51 286 2.0 10.0 0.00 0.00 0.00 89 1017.5
20260508130540 51 261 3.0 10.0 0.00 0.00 0.00 89 1017.5
20260508130049 52 285 3.0 10.0 0.00 0.00 0.00 89 1017.5
20260508125538 52 325 2.0 7.0 0.00 0.00 0.00 89 1017.5
20260508125038 51 283 3.0 10.0 0.00 0.00 0.00 89 1017.5
20260508124549 51 287 3.0 10.0 0.00 0.00 0.00 89 1017.5
20260508124038 51 288 4.0 10.0 0.00 0.00 0.00 89 1017.5
20260508123538 51 263 3.0 10.0 0.00 0.00 0.00 89 1017.5
20260508123043 52 303 3.0 10.0 0.00 0.00 0.00 89 1017.4
20260508122537 52 274 2.0 9.0 0.00 0.00 0.00 89 1017.4
20260508122037 51 281 3.0 8.0 0.00 0.00 0.00 89 1017.4
20260508121544 52 315 3.0 7.0 0.00 0.00 0.00 89 1017.3
20260508121038 51 277 3.0 8.0 0.00 0.00 0.00 89 1017.4
20260508120537 52 297 3.0 9.0 0.00 0.00 0.00 89 1017.4
20260508120055 52 276 4.0 9.0 0.00 0.00 0.00 90 1017.4
20260508115538 52 303 3.0 9.0 0.00 0.00 0.00 90 1017.4
20260508115038 51 234 2.0 9.0 0.00 0.00 0.00 89 1017.4
20260508114603 52 255 3.0 9.0 0.00 0.00 0.00 90 1017.4
20260508114038 52 288 3.0 9.0 0.00 0.00 0.00 89 1017.4
20260508113538 52 299 3.0 10.0 0.00 0.00 0.00 90 1017.4
20260508113046 52 313 3.0 10.0 0.00 0.00 0.00 90 1017.4
20260508112541 52 286 3.0 10.0 0.00 0.00 0.00 90 1017.5
20260508112037 52 269 3.0 10.0 0.00 0.00 0.00 90 1017.5
20260508111558 52 279 4.0 10.0 0.00 0.00 0.00 90 1017.6
20260508111039 52 270 3.0 7.0 0.00 0.00 0.00 90 1017.6
20260508110538 52 254 3.0 8.0 0.00 0.00 0.00 89 1017.5
20260508110044 52 250 4.0 8.0 0.00 0.00 0.00 90 1017.5
20260508105538 52 250 2.0 7.0 0.00 0.00 0.00 90 1017.4
20260508105038 52 292 2.0 10.0 0.00 0.00 0.00 90 1017.4
20260508104551 52 260 3.0 10.0 0.00 0.00 0.00 90 1017.3
20260508104037 52 318 3.0 9.0 0.00 0.00 0.00 90 1017.5
20260508103537 52 239 3.0 9.0 0.00 0.00 0.00 90 1017.4
20260508103047 52 285 2.0 10.0 0.00 0.00 0.00 90 1017.4
20260508102538 52 245 2.0 10.0 0.00 0.00 0.00 90 1017.5
20260508102038 52 286 4.0 10.0 0.00 0.00 0.00 90 1017.6
20260508101547 52 284 2.0 9.0 0.00 0.00 0.00 90 1017.5
20260508101037 52 290 3.0 7.0 0.00 0.00 0.00 90 1017.5
20260508100537 52 250 2.0 7.0 0.00 0.00 0.00 90 1017.4
20260508100044 52 271 3.0 7.0 0.00 0.00 0.00 90 1017.5
20260508095538 52 288 1.0 7.0 0.00 0.00 0.00 90 1017.5
20260508095038 52 280 2.0 7.0 0.00 0.00 0.00 90 1017.5
20260508094555 52 288 3.0 10.0 0.00 0.00 0.00 90 1017.5
20260508094037 52 265 2.0 10.0 0.00 0.00 0.00 89 1017.5
20260508093537 52 259 3.0 8.0 0.00 0.00 0.00 89 1017.4
20260508093056 52 283 3.0 8.0 0.00 0.00 0.00 89 1017.5
20260508092538 52 284 2.0 7.0 0.00 0.00 0.00 90 1017.5
20260508092035 52 282 2.0 8.0 0.00 0.00 0.00 89 1017.6
20260508091550 52 281 3.0 8.0 0.00 0.00 0.00 89 1017.6
20260508091038 52 276 2.0 8.0 0.00 0.00 0.00 89 1017.5
20260508090536 51 285 3.0 9.0 0.00 0.00 0.00 89 1017.4
20260508090047 52 272 3.0 9.0 0.00 0.00 0.00 89 1017.4
20260508085537 52 244 3.0 9.0 0.00 0.00 0.00 90 1017.4
20260508085037 52 266 1.0 7.0 0.00 0.00 0.00 89 1017.4
20260508084545 52 256 2.0 7.0 0.00 0.00 0.00 89 1017.4
20260508084039 52 246 1.0 4.0 0.00 0.00 0.00 89 1017.5
20260508083538 52 305 2.0 6.0 0.00 0.00 0.00 89 1017.4
20260508083049 52 269 2.0 8.0 0.00 0.00 0.00 89 1017.5
20260508082538 52 253 2.0 8.0 0.00 0.00 0.00 89 1017.5
20260508082037 52 288 3.0 6.0 0.00 0.00 0.00 89 1017.5
20260508081548 52 299 1.0 7.0 0.00 0.00 0.00 90 1017.5
20260508081038 52 297 2.0 7.0 0.00 0.00 0.00 89 1017.5
20260508080537 52 262 2.0 8.0 0.00 0.00 0.00 89 1017.5
20260508080047 52 277 2.0 8.0 0.00 0.00 0.00 89 1017.6
20260508075540 52 270 2.0 8.0 0.00 0.00 0.00 89 1017.7
20260508075037 52 273 3.0 8.0 0.00 0.00 0.00 89 1017.6
20260508074547 52 298 3.0 9.0 0.00 0.00 0.00 90 1017.6
20260508074038 52 275 2.0 11.0 0.00 0.00 0.00 90 1017.6
20260508073537 52 286 4.0 11.0 0.00 0.00 0.00 89 1017.5
20260508073048 52 298 3.0 7.0 0.00 0.00 0.00 90 1017.5
20260508072537 52 277 2.0 7.0 0.00 0.00 0.00 90 1017.4
20260508072037 52 238 2.0 7.0 0.00 0.00 0.00 90 1017.4
20260508071545 52 254 3.0 7.0 0.00 0.00 0.00 90 1017.4
20260508071038 52 240 3.0 11.0 0.00 0.00 0.00 90 1017.5
20260508070538 52 267 4.0 11.0 0.00 0.00 0.00 90 1017.4
20260508070049 52 294 3.0 10.0 0.00 0.00 0.00 90 1017.6
20260508065537 52 294 3.0 10.0 0.00 0.00 0.00 90 1017.5
20260508065036 52 236 4.0 9.0 0.00 0.00 0.00 90 1017.5
20260508064548 52 296 2.0 10.0 0.00 0.00 0.00 90 1017.6
20260508064037 52 259 4.0 10.0 0.00 0.00 0.00 90 1017.6
20260508063538 52 285 4.0 9.0 0.00 0.00 0.00 90 1017.6
20260508063041 52 308 3.0 10.0 0.00 0.00 0.00 91 1017.6
20260508062537 52 281 2.0 10.0 0.00 0.00 0.00 91 1017.6
20260508062037 52 272 3.0 9.0 0.00 0.00 0.00 91 1017.7
20260508061544 52 296 4.0 8.0 0.00 0.00 0.00 91 1017.6
20260508061042 52 253 3.0 8.0 0.00 0.00 0.00 91 1017.6
20260508060538 52 295 4.0 8.0 0.00 0.00 0.00 91 1017.6
20260508060052 52 288 4.0 10.0 0.00 0.00 0.00 91 1017.6
20260508055537 52 300 3.0 10.0 0.00 0.00 0.00 91 1017.7
20260508055037 52 297 4.0 10.0 0.00 0.00 0.00 91 1017.6
20260508054549 52 312 2.0 7.0 0.00 0.00 0.00 91 1017.6
20260508054037 52 262 2.0 8.0 0.00 0.00 0.00 91 1017.4
20260508053537 52 298 3.0 8.0 0.00 0.00 0.00 91 1017.5